Location: Allen Fire Department Station 4
(33.1073°N, 96.6988°W)
Time: 16:29:29
(UTC+00:00)

Aurora 2 Rocket - Pass Details

Date: 30 June 2022
Orbit: 389 x 1718 km, 25.0° (Epoch: 06 August)

Event Time Altitude Azimuth Distance (km) Brightness Sun altitude
Rises 04:26:49 0° 235° (SW) 4,399 6.9 -26.5°
Reaches altitude 10° 04:30:39 10° 225° (SW) 3,191 6.0 -26.9°
Enters shadow 04:32:09 15° 219° (SW) 2,749 5.6 -27.1°
